Location: Paimpol
(48.7798°N, 3.0488°W)
Time: 16:39:12
(UTC+01:00)

X-37B - Visible Passes

Search period start: 30 November 2021 00:00
Search period end: 10 December 2021 00:00
Orbit: 330 x 341 km, 45.0° (Epoch: 20 November)

Date Brightness Start Highest point End Pass type
(mag) Time Alt. Az. Time Alt. Az. Time Alt. Az.
07 Dec 3.4 19:49:01 10° SW 19:49:22 12° SSW 19:49:22 12° SSW visible
08 Dec 2.8 18:35:15 10° S 18:36:36 13° SSE 18:37:44 11° SE visible
08 Dec 3.9 20:08:57 10° SW 20:08:58 10° SW 20:08:58 10° SW visible
09 Dec 2.1 18:54:26 10° SW 18:56:44 22° SSE 18:57:18 20° SE visible
